Location: Casilda
(33.0440°S, 61.1680°W)
Time: 13:50:04
(UTC-03:00)

ISS - Visible Passes

Search period start: 20 June 2021 00:00
Search period end: 30 June 2021 00:00
Orbit: 417 x 422 km, 51.6° (Epoch: 20 June)

Date Brightness Start Highest point End Pass type
(mag) Time Alt. Az. Time Alt. Az. Time Alt. Az.
20 Jun -2.5 19:20:25 10° WNW 19:23:34 35° SW 19:25:19 21° SSE visible
21 Jun -3.4 18:32:43 10° NW 18:36:05 65° SW 18:39:30 10° SE visible
22 Jun -1.2 19:23:49 10° WSW 19:25:46 14° SSW 19:27:34 11° S visible
23 Jun -1.7 18:35:26 10° W 18:38:09 21° SW 18:40:52 10° SSE visible
